Temperature
17 17 17 17 17 17 17 17 17 17 17 17 17 17 17 17 17 18 18 17 17 18 17 17 17 17 18 18 18 18 18 18 18 18 18 18 18 18 18 18 18 18 18
17 17 17 17 17 17 17 17 17 17 17 17 17 17 17 17 17 17 17 17 17 17 17 17 17 17 17 17 17 17 17 17 17 17 17 17 17 17 17 18 18 17 17
17 17 17 17 17 17 17 17 17 17 17 17 17 17 17 17 17 17 17 17 17 17 17 17 17 17 17 17 17 17 17 17 17 17 17 17 17 17 17 17 17 17 17
17 17 17 17 17 17 17 17 17 17 17 17 17 17 17 17 17 17 17 17 17 17 17 17 17 17 17 17 17 17 17 17 17 17 17 17 17 17 17 17 17 17 17
17 17 17 17 17 17 17 17 17 17 17 17 17 17 17 17 17 17 17 17 17 17 17 17 17 17 17 17 17 17 17 17 17 17 17 17 17 17 17 17 17 17 17
17 17 17 17 17 17 17 17 17 17 17 17 17 17 17 17 17 17 17 17 17 16 16 17 17 17 17 17 16 17 17 17 17 17 17 17 17 17 17 17 17 17 17
17 17 17 17 17 17 17 17 17 17 17 17 17 17 17 17 17 17 17 17 16 16 16 16 16 16 16 16 16 16 16 16 16 16 17 17 16 17 17 17 17 17 17
17 17 17 17 16 16 16 16 16 16 16 17 17 17 17 17 17 16 16 16 16 16 16 16 16 16 16 16 16 16 16 16 16 16 16 16 16 16 17 16 16 16 17
17 17 16 16 16 16 16 16 16 16 16 17 17 17 17 17 16 16 16 16 16 16 16 16 16 16 16 16 16 16 16 16 16 16 16 16 16 16 16 16 16 16 16
16 16 16 16 16 16 16 16 16 16 16 16 16 16 16 16 16 16 16 16 16 16 16 16 16 16 16 16 16 16 16 16 16 16 16 16 16 16 16 16 16 16 16
16 16 16 16 16 16 16 16 16 16 16 16 16 16 16 16 16 16 16 16 16 16 16 16 16 16 16 16 15 15 15 16 16 15 15 15 16 16 16 16 16 16 16
16 16 16 16 16 16 16 16 16 16 16 16 16 16 16 16 16 16 16 16 16 16 16 16 16 15 15 15 15 15 15 15 15 15 15 15 15 15 15 15 15 15 15
16 16 16 16 16 16 16 16 16 16 16 16 16 16 16 16 16 15 15 15 15 15 15 15 15 15 15 15 15 15 15 15 15 15 15 15 15 15 15 15 15 15 15
16 16 16 16 16 16 16 16 16 16 16 16 16 15 15 15 15 15 15 15 15 15 15 15 15 15 15 15 15 15 15 15 15 15 14 14 15 15 15 15 15 15 15
16 16 16 16 16 16 16 16 16 16 16 15 15 15 15 15 15 15 15 15 15 15 15 15 15 15 15 14 14 14 14 14 14 14 14 14 14 14 14 14 14 14 14
16 16 16 16 16 16 16 16 16 15 15 15 15 15 15 15 15 15 15 15 15 15 15 15 14 14 14 14 14 14 14 14 14 14 14 14 14 14 14 14 14 14 14
16 16 16 16 16 16 16 15 15 15 15 15 15 15 15 15 15 15 15 15 15 15 14 14 14 14 14 14 14 14 14 13 13 14 14 14 13 13 13 14 14 14 14
16 16 16 16 16 15 15 15 15 15 15 15 15 15 15 15 15 15 15 15 15 14 14 14 14 14 14 14 13 13 13 13 13 13 13 13 13 13 13 13 13 13 13
16 16 16 16 16 15 15 15 15 15 15 15 15 15 15 15 15 15 15 14 14 14 14 14 14 14 13 13 13 13 13 13 13 13 13 13 13 13 13 13 13 13 13
16 15 15 15 15 15 15 15 15 15 14 14 14 14 14 14 14 14 14 14 14 14 14 13 13 13 13 13 13 13 13 12 12 12 12 12 12 12 12 12 13 12 12
15 15 15 15 15 15 15 15 14 14 14 14 14 14 14 14 14 14 14 14 14 14 13 13 13 13 13 13 13 12 12 12 12 12 12 12 12 12 12 12 12 12 12
15 15 15 15 15 15 15 14 14 14 14 14 14 14 13 13 13 13 13 13 13 13 13 13 13 13 12 12 12 12 12 11 12 12 11 12 11 11 11 11 11 11 11
15 15 15 14 14 14 14 14 14 14 14 13 13 13 13 13 13 13 13 13 13 13 13 13 12 12 12 12 12 12 11 11 11 11 11 11 11 11 11 11 11 11 11
15 15 14 14 14 14 14 14 14 14 13 13 13 13 13 13 12 12 12 12 12 12 12 12 12 12 12 12 12 12 11 11 11 10 10 10 10 10 10 10 10 11 10
15 14 14 14 14 14 14 13 13 13 13 13 13 13 12 12 12 12 12 12 12 12 12 12 12 12 11 11 11 11 11 11 11 11 10 10 10 10 10 10 10 10 10
14 14 14 14 14 14 14 13 13 13 13 13 13 12 12 12 12 12 11 11 11 11 11 11 11 11 11 11 11 11 11 11 11 10 10 10 10 10 10 10 10 10 10
Wind_Speed
2 4 2 3 4 6 6 7 8 8 8 8 8 8 9 9 9 9 9 9 8 8 8 8 7 7 7 7 7 7 7 7 7 7 7 6 6 6 6 6 6 5 5
1 1 1 4 5 6 7 8 8 9 8 8 8 9 9 9 9 9 9 9 9 9 8 8 7 7 7 7 7 7 7 7 7 7 7 6 6 6 6 6 5 4 5
1 1 2 4 5 7 7 8 8 8 9 9 9 8 9 9 9 9 9 9 9 9 9 8 8 7 7 7 7 7 8 8 8 8 7 6 5 5 5 5 5 5 5
1 1 2 4 6 7 8 8 8 8 9 9 8 8 9 9 9 9 9 10 10 9 9 9 8 8 7 8 7 7 8 8 8 7 6 6 4 5 5 5 5 5 5
2 2 2 5 7 8 9 9 9 9 9 9 8 9 9 9 10 10 10 10 9 9 9 8 8 8 8 8 7 7 7 7 7 7 6 5 4 5 6 5 5 5 4
2 2 3 6 7 8 8 9 10 10 10 9 9 9 9 9 10 10 10 9 9 9 8 8 8 8 8 8 8 8 8 7 7 6 6 5 5 6 6 6 5 5 5
3 3 5 6 7 8 9 9 10 11 10 10 9 9 8 9 9 9 9 9 9 9 8 8 8 8 8 8 8 8 8 7 7 6 5 5 5 6 6 6 7 6 6
4 5 6 6 7 8 8 9 9 10 10 10 10 10 10 9 9 8 8 8 8 8 8 8 9 9 8 8 8 8 8 7 6 5 5 5 5 6 6 6 7 7 8
5 5 6 6 6 7 8 8 8 9 9 10 10 10 11 10 9 9 8 8 7 8 8 9 9 9 9 9 9 8 8 8 6 4 4 4 6 6 6 7 7 7 8
5 5 5 6 6 6 7 7 8 9 9 9 9 10 10 11 10 10 10 9 8 8 9 9 9 9 9 9 9 8 8 7 6 5 4 5 6 6 6 7 7 8 8
4 4 4 5 6 6 6 7 8 8 9 9 8 9 9 9 9 9 10 10 9 8 9 9 9 9 9 9 9 8 7 6 6 5 5 7 7 7 7 7 7 8 8
2 2 3 3 4 5 5 6 7 6 7 8 8 8 8 8 8 8 10 11 11 10 10 10 10 10 9 8 8 8 7 7 6 6 7 9 9 9 8 8 8 8 8
2 1 1 2 3 4 4 5 5 5 6 7 7 7 7 7 7 8 7 8 9 10 9 10 10 10 9 8 7 8 8 7 6 6 7 9 10 10 10 10 9 8 8
2 1 1 2 3 3 4 4 4 4 4 5 6 6 6 5 5 5 6 7 7 7 7 7 7 8 9 9 9 9 9 8 7 7 8 10 10 11 11 11 10 9 7
2 1 1 2 2 3 4 3 4 4 4 5 6 6 6 4 3 4 5 6 7 7 6 5 6 7 7 7 8 9 8 8 9 8 8 11 11 11 11 11 11 10 9
2 2 1 2 2 4 3 3 3 4 5 6 6 6 6 5 4 4 4 5 5 6 5 5 6 5 5 6 7 8 8 8 9 9 8 9 11 11 11 11 11 9 9
2 2 1 2 3 4 3 3 4 4 5 5 5 6 6 6 5 4 4 4 4 5 6 6 6 6 5 6 6 6 7 8 8 9 9 9 9 10 11 11 11 10 9
2 2 2 3 4 4 3 4 4 4 5 5 5 5 6 6 6 5 4 3 5 5 5 4 4 5 5 5 5 5 5 6 7 8 9 10 10 9 10 12 12 11 10
3 3 2 3 4 4 4 4 4 5 5 4 5 5 5 6 6 6 4 4 5 5 4 4 4 4 4 4 4 5 5 5 6 7 8 10 10 10 10 11 13 13 13
2 3 3 4 3 4 4 4 4 4 4 5 5 4 5 5 6 6 5 5 5 4 4 4 4 4 3 3 5 6 5 5 5 6 6 8 9 10 10 10 10 11 13
2 3 3 3 3 3 3 2 2 2 2 2 3 5 5 5 5 5 4 4 4 4 3 3 3 4 4 3 3 4 4 5 6 5 6 6 7 8 9 10 10 9 9
2 2 2 2 2 3 2 2 2 2 1 1 3 4 5 4 4 4 4 3 3 3 4 4 3 2 2 3 2 2 2 4 4 5 5 5 5 6 7 9 9 9 9
2 2 2 2 2 2 3 3 3 3 3 2 2 2 4 4 4 4 4 4 3 3 3 2 3 3 2 3 3 2 2 1 2 3 4 4 5 4 5 7 8 9 9
2 2 2 2 2 2 3 4 4 3 2 1 0 1 2 3 4 4 4 4 3 3 2 2 2 2 3 2 2 3 2 2 2 1 3 3 4 4 4 5 6 8 9
2 2 2 2 3 2 3 3 3 2 1 1 1 2 2 3 3 3 3 3 3 3 2 2 2 2 2 2 1 1 2 2 2 2 1 3 3 3 3 4 4 6 8
2 2 2 3 2 2 3 3 3 3 2 2 1 1 1 1 2 2 3 3 3 3 2 2 2 3 2 2 2 2 2 1 1 1 1 1 2 3 3 3 4 5 6
Wind_Direction
297 303 352 62 62 62 64 69 72 74 72 71 74 76 79 82 85 86 85 86 89 86 87 84 87 93 93 92 90 92 92 90 85 83 83 84 84 86 84 82 82 79 83
229 301 53 69 71 71 71 71 74 77 76 74 75 74 76 77 82 85 83 84 85 83 80 80 82 88 89 84 83 87 90 88 84 80 76 71 74 81 82 84 88 89 91
72 43 88 82 79 76 74 72 74 78 79 75 74 74 76 77 79 81 80 80 83 81 76 73 73 78 82 80 80 82 86 87 84 79 68 56 62 81 83 84 84 84 86
94 77 98 92 80 76 75 73 75 78 79 76 74 75 78 78 78 80 79 77 77 74 72 71 72 76 78 77 77 79 84 87 83 77 61 49 49 74 77 82 83 79 81
59 66 104 91 81 77 76 75 76 80 81 81 78 79 78 79 79 81 80 78 75 72 69 70 74 76 76 75 73 73 79 86 80 71 62 52 47 67 74 75 78 78 83
45 63 98 93 85 79 76 73 74 76 78 81 81 78 78 78 79 82 81 78 73 71 70 69 72 73 72 73 74 75 76 76 72 66 60 53 55 66 72 75 75 79 83
53 64 92 92 88 82 77 73 73 73 71 72 74 73 75 77 78 80 78 76 73 71 70 71 70 70 71 72 76 81 79 78 74 67 59 54 60 68 71 74 74 76 76
72 69 77 88 87 83 78 72 70 72 72 70 70 68 68 71 73 73 71 75 75 70 65 65 66 69 71 71 76 79 78 77 76 68 61 54 64 72 71 72 75 72 72
59 59 52 59 72 76 75 70 67 70 70 68 67 64 65 64 64 65 65 67 67 68 66 67 68 67 68 70 73 73 70 69 66 62 65 59 68 75 76 75 73 71 68
56 51 46 45 51 53 59 66 67 66 64 63 64 61 58 56 55 57 55 56 60 64 65 67 71 68 65 66 65 63 60 57 55 54 55 63 72 74 74 76 74 71 70
61 45 45 44 41 44 50 57 58 59 58 57 54 54 51 44 44 46 50 53 58 63 64 61 65 68 63 61 60 58 56 55 59 52 50 60 70 73 73 74 73 74 72
89 57 55 48 41 45 54 50 49 51 50 52 51 50 50 46 44 46 47 51 54 56 56 56 58 59 58 55 53 54 54 58 62 54 52 59 67 70 70 72 73 73 71
157 118 87 73 60 60 55 55 49 47 48 47 45 46 52 49 43 41 41 40 43 47 49 50 52 52 55 55 53 52 54 61 59 54 52 58 65 68 67 68 69 69 68
123 142 113 92 78 71 69 60 58 53 53 49 44 48 55 50 42 39 41 37 42 44 47 49 55 55 56 57 56 54 54 57 56 51 51 56 60 64 63 63 62 63 67
122 124 116 104 104 86 76 67 64 56 56 59 57 52 60 59 48 42 43 46 45 46 48 51 54 52 51 54 54 55 52 54 55 51 46 53 55 58 56 56 56 57 63
132 140 119 108 103 95 86 80 66 61 63 63 58 53 59 62 56 54 48 42 42 47 53 57 57 57 52 54 52 50 50 52 52 52 46 45 49 51 50 50 51 52 59
158 140 138 131 103 98 94 88 77 66 68 62 56 56 60 65 63 59 56 45 35 52 62 62 56 58 56 53 47 44 47 48 47 47 46 44 42 45 46 48 47 48 54
132 123 144 127 114 109 97 88 80 71 69 63 58 56 61 66 69 65 57 41 38 57 60 62 52 61 53 49 45 40 42 46 44 47 48 45 42 37 39 44 44 44 48
148 137 116 108 120 114 98 85 76 69 65 59 56 53 58 65 70 71 60 44 49 57 55 64 56 65 63 53 54 46 37 39 38 48 47 45 43 39 36 39 41 41 41
122 119 109 102 111 108 96 82 67 57 50 52 50 49 60 64 67 71 61 49 56 63 58 62 68 57 60 50 62 51 37 35 39 41 43 44 40 39 38 38 38 38 38
107 110 113 117 119 121 114 108 93 67 38 39 43 48 60 65 70 74 66 56 59 68 69 75 83 71 52 39 63 46 32 37 42 37 37 40 36 34 39 39 38 39 34
134 136 129 137 142 140 124 121 121 116 87 62 38 42 48 63 72 81 80 71 68 76 67 63 76 83 49 39 73 79 35 14 20 30 31 37 28 29 34 35 35 35 33
155 168 159 156 141 124 105 98 85 65 48 36 28 21 22 52 72 78 86 83 74 84 89 71 75 95 93 39 49 99 115 179 343 2 24 29 20 24 23 28 32 29 28
194 159 136 135 126 120 121 121 128 132 144 197 202 22 17 46 70 80 88 89 83 80 89 83 80 91 111 92 45 45 89 145 140 2 354 9 15 22 14 20 22 23 24
163 150 148 133 125 125 125 131 126 123 140 115 76 68 40 36 53 67 83 86 85 81 89 87 78 77 94 115 107 88 69 56 78 131 335 340 357 358 2 9 17 19 18
141 144 145 140 142 142 134 134 138 138 134 123 117 115 59 31 38 57 79 80 83 85 93 98 94 88 85 92 89 95 119 125 142 128 155 311 331 329 344 1 14 13 15
Height
1514 1513 1513 1512 1512 1512 1511 1511 1510 1510 1510 1510 1510 1510 1510 1510 1510 1510 1510 1510 1510 1511 1511 1512 1512 1512 1513 1513 1514 1514 1515 1515 1516 1516 1516 1516 1517 1517 1517 1517 1517 1517 1517
1514 1514 1513 1513 1513 1512 1512 1512 1511 1511 1511 1511 1511 1511 1511 1511 1511 1511 1511 1511 1511 1511 1512 1512 1513 1513 1513 1514 1514 1515 1515 1515 1516 1516 1516 1516 1517 1517 1517 1517 1517 1517 1517
1514 1514 1514 1514 1514 1513 1513 1513 1512 1512 1512 1512 1512 1512 1512 1512 1512 1512 1512 1512 1512 1512 1513 1513 1513 1513 1514 1514 1515 1515 1515 1516 1516 1516 1516 1517 1517 1517 1518 1518 1518 1518 1518
1515 1515 1515 1515 1515 1514 1514 1514 1513 1513 1513 1513 1513 1513 1513 1513 1513 1513 1513 1513 1513 1513 1513 1513 1514 1514 1514 1514 1515 1515 1516 1516 1516 1516 1516 1517 1517 1518 1518 1518 1518 1518 1518
1516 1516 1516 1516 1516 1516 1515 1515 1515 1514 1514 1514 1514 1514 1514 1514 1514 1514 1514 1514 1514 1514 1514 1514 1514 1514 1514 1514 1515 1515 1516 1516 1516 1516 1517 1517 1517 1518 1518 1518 1518 1518 1518
1516 1516 1516 1517 1517 1517 1517 1516 1516 1516 1516 1516 1516 1515 1515 1515 1515 1515 1515 1515 1515 1515 1515 1515 1515 1515 1515 1515 1515 1515 1515 1516 1516 1516 1517 1517 1517 1518 1518 1518 1518 1518 1518
1516 1516 1517 1518 1518 1518 1518 1518 1518 1517 1517 1517 1517 1517 1517 1516 1516 1516 1516 1516 1516 1516 1516 1515 1515 1515 1515 1515 1515 1515 1515 1515 1516 1516 1516 1517 1517 1518 1518 1518 1518 1518 1518
1518 1518 1518 1519 1519 1520 1519 1519 1519 1519 1519 1518 1518 1518 1518 1518 1517 1517 1517 1517 1517 1517 1516 1516 1516 1516 1515 1515 1515 1515 1515 1515 1515 1516 1516 1517 1517 1517 1518 1518 1518 1518 1518
1520 1520 1520 1521 1521 1521 1521 1521 1521 1521 1520 1520 1520 1520 1519 1519 1519 1519 1518 1518 1518 1518 1517 1517 1517 1516 1516 1515 1515 1515 1514 1514 1515 1515 1516 1517 1517 1517 1518 1518 1519 1519 1518
1522 1522 1523 1523 1523 1523 1523 1523 1523 1523 1522 1522 1521 1521 1521 1520 1520 1520 1520 1519 1519 1518 1518 1517 1517 1516 1516 1515 1514 1514 1513 1513 1514 1515 1516 1516 1517 1517 1518 1518 1519 1519 1519
1524 1524 1524 1525 1525 1525 1525 1524 1524 1524 1524 1524 1523 1523 1522 1522 1522 1521 1521 1520 1520 1519 1519 1518 1518 1517 1516 1515 1514 1513 1512 1511 1512 1514 1515 1516 1517 1517 1518 1518 1519 1519 1519
1525 1525 1526 1526 1526 1526 1526 1526 1526 1526 1526 1525 1525 1524 1524 1523 1523 1522 1522 1521 1521 1520 1520 1519 1518 1517 1517 1515 1514 1512 1510 1510 1511 1513 1515 1516 1517 1518 1518 1518 1519 1519 1519
1526 1527 1527 1527 1528 1528 1527 1527 1527 1527 1527 1527 1526 1526 1525 1525 1524 1524 1523 1523 1522 1521 1521 1520 1519 1518 1517 1516 1515 1513 1511 1510 1512 1514 1516 1517 1518 1518 1518 1519 1519 1519 1519
1527 1528 1528 1529 1529 1529 1529 1529 1529 1528 1528 1528 1527 1527 1527 1526 1525 1525 1524 1524 1523 1523 1522 1521 1520 1519 1519 1517 1516 1514 1514 1513 1514 1515 1517 1518 1518 1519 1519 1519 1519 1519 1520
1528 1529 1529 1529 1529 1530 1530 1530 1529 1529 1529 1529 1528 1528 1528 1527 1526 1526 1525 1525 1524 1523 1523 1522 1521 1520 1520 1519 1518 1517 1517 1516 1516 1517 1518 1519 1519 1520 1520 1520 1520 1520 1520
1529 1529 1530 1530 1530 1530 1530 1530 1530 1530 1530 1530 1529 1529 1529 1528 1527 1527 1526 1526 1525 1524 1524 1523 1523 1522 1521 1521 1520 1519 1519 1519 1519 1519 1519 1520 1520 1521 1521 1520 1520 1520 1520
1529 1530 1530 1530 1530 1531 1531 1531 1531 1531 1531 1530 1530 1530 1529 1529 1528 1527 1527 1526 1526 1525 1525 1524 1524 1523 1523 1522 1522 1521 1521 1520 1520 1520 1520 1521 1521 1521 1522 1521 1521 1521 1520
1529 1530 1530 1530 1530 1531 1531 1531 1531 1531 1531 1531 1531 1530 1530 1529 1529 1528 1527 1527 1527 1526 1526 1525 1525 1524 1524 1523 1523 1523 1522 1522 1522 1521 1521 1521 1522 1522 1522 1522 1522 1521 1521
1530 1530 1530 1530 1531 1531 1531 1531 1531 1532 1531 1531 1531 1531 1530 1529 1529 1528 1528 1527 1527 1527 1527 1526 1526 1525 1525 1525 1525 1524 1524 1523 1523 1523 1523 1523 1523 1523 1523 1523 1522 1522 1521
1530 1530 1530 1530 1531 1531 1531 1531 1531 1532 1531 1531 1531 1530 1530 1530 1529 1529 1528 1528 1527 1527 1527 1527 1527 1526 1526 1526 1526 1525 1525 1525 1525 1524 1524 1524 1524 1523 1523 1523 1522 1522 1521
1529 1530 1530 1530 1530 1531 1531 1531 1531 1531 1531 1531 1531 1530 1530 1530 1529 1529 1528 1528 1528 1527 1527 1527 1527 1527 1527 1527 1526 1526 1526 1526 1526 1526 1525 1525 1525 1524 1524 1523 1523 1522 1522
1529 1529 1530 1530 1530 1530 1531 1531 1531 1531 1531 1531 1530 1530 1530 1529 1529 1528 1528 1528 1527 1527 1527 1527 1527 1527 1527 1527 1527 1526 1527 1528 1527 1526 1526 1526 1525 1525 1524 1523 1523 1522 1521
1528 1529 1529 1530 1530 1530 1530 1531 1531 1531 1530 1530 1530 1530 1529 1529 1528 1528 1527 1527 1527 1527 1527 1527 1526 1527 1527 1527 1527 1528 1527 1527 1527 1527 1526 1526 1526 1525 1525 1524 1523 1522 1521
1527 1528 1529 1529 1530 1530 1530 1530 1530 1530 1530 1530 1529 1529 1529 1528 1528 1527 1527 1527 1527 1526 1526 1526 1526 1526 1526 1526 1526 1527 1528 1527 1527 1527 1527 1527 1526 1525 1525 1524 1523 1523 1522
1526 1527 1528 1528 1529 1529 1529 1529 1529 1529 1529 1529 1529 1528 1528 1528 1527 1527 1527 1526 1526 1526 1526 1526 1526 1526 1526 1526 1526 1526 1526 1526 1526 1526 1526 1526 1526 1525 1525 1524 1524 1523 1522
1525 1526 1526 1527 1528 1528 1528 1528 1528 1528 1528 1528 1527 1527 1527 1527 1527 1526 1526 1526 1526 1526 1525 1525 1525 1525 1525 1525 1525 1525 1525 1525 1525 1525 1524 1524 1524 1525 1524 1524 1523 1522 1522